(272558) = 2005 UN463

Discovered at Kitt Peak on 2005-10-30 by Spacewatch.

Orbit

Orbit type: Main Belt

Note: WebGL enabled browser required.

epoch2023-09-13.0
epoch JD2460200.5
perihelion date2022-06-03.17946
perihelion JD2459733.67946
argument of perihelion (°)85.58965
ascending node (°)123.30370
inclination (°)2.97859
eccentricity0.1238426
perihelion distance (AU)2.1016933
Tisserand w.r.t. Jupiter3.5
ΔV w.r.t. Earth (km/sec)9.1
semimajor axis (AU)2.3987622
mean anomaly (°)123.84344
mean daily motion (°/day)0.26529130
aphelion distance (AU)2.696
period (years)3.72
P-vector [x]-0.87439484
P-vector [y]-0.46323952
P-vector [z]-0.14437038
Q-vector [x]0.48326761
Q-vector [y]-0.80481159
Q-vector [z]-0.34457325
absolute magnitude17.63
phase slope0.15
uncertainty0
referenceMPO 778952
observations used213
oppositions14
arc length (days)7576
first opposition used2003
last opposition used2023
residual rms (arc-secs)0.84
perturbers coarse indicatorM-v
perturbers precise indicator003Ek
first observation date used2003-01-10.0
last observation date used2023-10-08.0
computer nameMPCLINUX
JD of orbit computation2456639.838045
perihelion JD uncertainty (days)6.1287E-05
argument of perihelion uncertainty (°)7.9476E-05
ascending node uncertainty (°)7.7101E-05
inclination uncertainty (°)3.8833E-06
eccentricity uncertainty 7.0549E-08
perihelion distance uncertainty (AU)1.5712E-07
Minimum Orbit Intersection Distances (in AU)
for orbit epoch: 2460200.5, reference: E2023-TC0
Mercury1.66001
Venus1.37946
Earth1.0981
Mars0.47817
Jupiter2.26237
Saturn6.46299
Uranus16.243
Neptune27.1429

Observations

219 total observations over interval: 2003 01 10.29432 – 2023 10 08.280007
These data are available for download (format description).

Date (UT) J2000 RA J2000 Dec Magn Location Ref
2003 01 10.29432 08 05 23.11 +19 35 46.4 21.5 V 291 – LPL/Spacewatch II MPS 178554
2003 01 10.31918 08 05 21.55 +19 35 53.0 21.4 V 291 – LPL/Spacewatch II MPS 178554
2003 01 10.34499 08 05 19.94 +19 35 59.9 21.3 V 291 – LPL/Spacewatch II MPS 178554
2003 01 25.181170 07 49 35.434 +20 41 14.42 20.72 V 645 – Apache Point-Sloan Digital Sky Survey MPS 178554
2003 01 25.184642 07 49 35.202 +20 41 15.33 21.62   645 – Apache Point-Sloan Digital Sky Survey MPS 178554
2003 01 31.13105 07 43 28.22 +21 05 37.4 22.0 V 291 – LPL/Spacewatch II MPS 178554
2003 01 31.15853 07 43 26.56 +21 05 43.9 22.0 V 291 – LPL/Spacewatch II MPS 178554
2003 01 31.18330 07 43 25.03 +21 05 50.4 21.5 V 291 – LPL/Spacewatch II MPS 178554
2005 10 30.17282 02 36 21.15 +10 21 41.8 21.4 V 691 – Steward Observatory, Kitt Peak-Spacewatch MPS 151140
2005 10 30.19016 02 36 20.12 +10 21 37.4 21.7 V 691 – Steward Observatory, Kitt Peak-Spacewatch MPS 151140
2005 10 30.20752 02 36 19.03 +10 21 31.9 21.5 V 691 – Steward Observatory, Kitt Peak-Spacewatch MPS 151140
2005 11 01.31345 02 34 15.38 +10 11 43.3 20.3 V G96 – Mt. Lemmon Survey MPS 178554
2005 11 01.32258 02 34 14.80 +10 11 40.4 21.5 V G96 – Mt. Lemmon Survey MPS 178554
2005 11 01.33171 02 34 14.23 +10 11 37.7 21.6 V G96 – Mt. Lemmon Survey MPS 178554
2005 11 01.34083 02 34 13.65 +10 11 34.9 21.2 V G96 – Mt. Lemmon Survey MPS 178554
2005 11 03.19414 02 32 24.94 +10 03 03.7 21.3 V 691 – Steward Observatory, Kitt Peak-Spacewatch MPS 151140
2005 11 03.21145 02 32 23.86 +10 02 59.0 21.2 V 691 – Steward Observatory, Kitt Peak-Spacewatch MPS 151140
2005 11 03.22877 02 32 22.81 +10 02 54.1 21.4 V 691 – Steward Observatory, Kitt Peak-Spacewatch MPS 151140
2005 12 01.20260 02 09 12.34 +08 29 51.2 21.9 V G96 – Mt. Lemmon Survey MPS 178555
2005 12 01.21058 02 09 11.98 +08 29 49.5 21.8 V G96 – Mt. Lemmon Survey MPS 178555
2005 12 01.21854 02 09 11.77 +08 29 49.7 21.9 V G96 – Mt. Lemmon Survey MPS 178555
2005 12 01.22656 02 09 11.48 +08 29 48.8 21.3 V G96 – Mt. Lemmon Survey MPS 178555
2006 12 27.39975 11 05 12.48 +07 07 21.7 21.8 V G96 – Mt. Lemmon Survey MPS 192264
2006 12 27.40485 11 05 12.62 +07 07 20.1 20.8 V G96 – Mt. Lemmon Survey MPS 192264
2006 12 27.41009 11 05 12.87 +07 07 20.4 21.6 V G96 – Mt. Lemmon Survey MPS 192264
2006 12 27.41521 11 05 13.05 +07 07 19.2 20.8 V G96 – Mt. Lemmon Survey MPS 192264
2007 01 28.44769 11 12 40.14 +07 27 58.9 20.4 V G96 – Mt. Lemmon Survey MPS 198170
2007 01 28.45651 11 12 39.99 +07 28 00.9 20.3 V G96 – Mt. Lemmon Survey MPS 198170
2007 01 28.46534 11 12 39.85 +07 28 02.6 20.2 V G96 – Mt. Lemmon Survey MPS 198170
2007 01 28.47424 11 12 39.70 +07 28 05.0 20.8 V G96 – Mt. Lemmon Survey MPS 198170
2007 02 09.36000 11 07 44.54 +08 27 01.1   691 – Steward Observatory, Kitt Peak-Spacewatch MPS 198730
2007 02 09.37768 11 07 43.87 +08 27 07.3   691 – Steward Observatory, Kitt Peak-Spacewatch MPS 198730
2007 02 09.39537 11 07 43.23 +08 27 13.4   691 – Steward Observatory, Kitt Peak-Spacewatch MPS 198730
2007 02 23.24899 10 57 28.93 +10 00 50.9 20.2 V 691 – Steward Observatory, Kitt Peak-Spacewatch MPS 201543
2007 02 23.26669 10 57 27.97 +10 00 58.9 20.4 V 691 – Steward Observatory, Kitt Peak-Spacewatch MPS 201543
2007 02 23.28438 10 57 27.04 +10 01 06.5 20.3 V 691 – Steward Observatory, Kitt Peak-Spacewatch MPS 201543
2007 02 27.23484 10 53 57.95 +10 29 51.2   691 – Steward Observatory, Kitt Peak-Spacewatch MPS 201543
2007 02 27.25018 10 53 57.08 +10 29 57.7   691 – Steward Observatory, Kitt Peak-Spacewatch MPS 201543
2007 02 27.26551 10 53 56.21 +10 30 04.8   691 – Steward Observatory, Kitt Peak-Spacewatch MPS 201543
2008 07 30.35500 22 13 32.34 -12 36 43.9 20.9 V G96 – Mt. Lemmon Survey MPS 252940
2008 07 30.35944 22 13 32.08 -12 36 45.1 20.9 V G96 – Mt. Lemmon Survey MPS 252940
2008 07 30.36392 22 13 31.80 -12 36 47.0 21.3 V G96 – Mt. Lemmon Survey MPS 252940
2008 07 30.36836 22 13 31.65 -12 36 48.4 21.2 V G96 – Mt. Lemmon Survey MPS 252940
2009 11 10.28102 04 44 40.75 +18 16 43.5 21.3 V 691 – Steward Observatory, Kitt Peak-Spacewatch MPS 302192
2009 11 10.29822 04 44 39.90 +18 16 41.9 21.5 V 691 – Steward Observatory, Kitt Peak-Spacewatch MPS 302192
2009 11 10.31542 04 44 38.98 +18 16 39.9 21.4 V 691 – Steward Observatory, Kitt Peak-Spacewatch MPS 302192
2011 03 27.36135 14 31 36.88 -09 27 14.6 20.5 V 691 – Steward Observatory, Kitt Peak-Spacewatch MPS 375542
2011 03 27.37904 14 31 36.44 -09 27 10.3 20.8 V 691 – Steward Observatory, Kitt Peak-Spacewatch MPS 375542
2011 03 27.39678 14 31 36.06 -09 27 06.5 21.1 V 691 – Steward Observatory, Kitt Peak-Spacewatch MPS 375542
2011 04 04.34725 14 27 45.13 -08 53 04.1 20.3 V 691 – Steward Observatory, Kitt Peak-Spacewatch MPS 377157
2011 04 04.36497 14 27 44.44 -08 52 59.1 20.4 V 691 – Steward Observatory, Kitt Peak-Spacewatch MPS 377157
2011 04 04.38268 14 27 43.77 -08 52 54.3 20.4 V 691 – Steward Observatory, Kitt Peak-Spacewatch MPS 377158
2011 04 08.32282 14 25 10.68 -08 34 02.1   691 – Steward Observatory, Kitt Peak-Spacewatch MPS 377158
2011 04 08.34055 14 25 09.91 -08 33 57.2   691 – Steward Observatory, Kitt Peak-Spacewatch MPS 377158
2011 04 08.35828 14 25 09.12 -08 33 51.8   691 – Steward Observatory, Kitt Peak-Spacewatch MPS 377158
2011 04 23.46180 14 12 47.251 -07 18 03.68 19.7 r F51 – Pan-STARRS 1, Haleakala MPS 381133
2011 04 23.47163 14 12 46.682 -07 18 00.84 19.7 r F51 – Pan-STARRS 1, Haleakala MPS 381133
2011 04 23.48306 14 12 46.039 -07 17 57.44 19.8 i F51 – Pan-STARRS 1, Haleakala MPS 381133
2011 04 23.49383 14 12 45.426 -07 17 54.31 19.7 i F51 – Pan-STARRS 1, Haleakala MPS 381133
2012 09 19.29682 23 56 52.47 -04 33 42.7 21.2 V G96 – Mt. Lemmon Survey MPS 433204
2012 09 19.30495 23 56 52.00 -04 33 45.5 21.4 V G96 – Mt. Lemmon Survey MPS 433204
2012 09 19.31311 23 56 51.57 -04 33 49.2 21.1 V G96 – Mt. Lemmon Survey MPS 433204
2012 09 19.32141 23 56 51.10 -04 33 52.4 20.9 V G96 – Mt. Lemmon Survey MPS 433204
2013 12 07.32224 07 01 51.06 +20 19 45.0 20.8 V 691 – Steward Observatory, Kitt Peak-Spacewatch MPS 491912
2013 12 07.33749 07 01 50.40 +20 19 46.2 21.3 V 691 – Steward Observatory, Kitt Peak-Spacewatch MPS 491912
2013 12 07.35018 07 01 49.84 +20 19 47.6 21.1 V 691 – Steward Observatory, Kitt Peak-Spacewatch MPS 491912
2016 09 27.45471 01 58 09.237 +07 18 30.58 21.5 w F51 – Pan-STARRS 1, Haleakala MPS 731992
2016 09 27.46742 01 58 08.676 +07 18 26.99 21.4 w F51 – Pan-STARRS 1, Haleakala MPS 731992
2016 09 27.48017 01 58 08.099 +07 18 23.01 21.6 w F51 – Pan-STARRS 1, Haleakala MPS 731992
2016 09 27.49297 01 58 07.534 +07 18 19.13 21.5 w F51 – Pan-STARRS 1, Haleakala MPS 731992
2016 09 30.48509 01 55 54.651 +07 02 54.37 21.4 w F51 – Pan-STARRS 1, Haleakala MPS 731992
2016 09 30.49632 01 55 54.110 +07 02 50.42 21.5 w F51 – Pan-STARRS 1, Haleakala MPS 731992
2016 09 30.50760 01 55 53.588 +07 02 46.89 21.3 w F51 – Pan-STARRS 1, Haleakala MPS 731992
2016 09 30.51885 01 55 53.012 +07 02 43.46 21.6 w F51 – Pan-STARRS 1, Haleakala MPS 731992
2016 10 19.28385 01 39 20.22 +05 18 28.3   G96 – Mt. Lemmon Survey MPS 737253
2016 10 19.28811 01 39 19.97 +05 18 26.6 21.1 V G96 – Mt. Lemmon Survey MPS 737253
2016 10 19.29239 01 39 19.69 +05 18 24.9 20.6 V G96 – Mt. Lemmon Survey MPS 737253
2016 10 19.29665 01 39 19.44 +05 18 23.6 21.3 V G96 – Mt. Lemmon Survey MPS 737253
2018 01 14.33402 09 39 08.26 +14 41 29.8 20.4 G G96 – Mt. Lemmon Survey MPS 861113
2018 01 14.33914 09 39 08.05 +14 41 32.0 20.4 G G96 – Mt. Lemmon Survey MPS 861113
2018 01 14.34425 09 39 07.86 +14 41 32.9 20.6 G G96 – Mt. Lemmon Survey MPS 861113
2018 01 14.34937 09 39 07.67 +14 41 34.2 20.4 G G96 – Mt. Lemmon Survey MPS 861113
2018 01 14.46247 09 39 03.45 +14 42 05.4 20.5 G G96 – Mt. Lemmon Survey MPS 861113
2018 01 14.46782 09 39 03.24 +14 42 07.2 20.2 G G96 – Mt. Lemmon Survey MPS 861113
2018 01 14.47155 09 39 03.11 +14 42 08.7 20.7 G G96 – Mt. Lemmon Survey MPS 861113
2018 01 14.47581 09 39 02.89 +14 42 09.8 20.0 G G96 – Mt. Lemmon Survey MPS 861113
2018 01 16.43026 09 37 50.765 +14 51 35.08 20.7 w F51 – Pan-STARRS 1, Haleakala MPS 861113
2018 01 16.44212 09 37 50.276 +14 51 38.78 20.7 w F51 – Pan-STARRS 1, Haleakala MPS 861113
